[[{"header":{"parameterUnit":"m.s-1","parameterCategory":1,"la1":30.2991,"la2":30.254,"lo1":-89.0895,"lo2":-89.0444,"dy":0.0017,"dx":0.0017,"nx":28,"ny":28,"refTime":"2025-01-18T09:00:00:Z","depth":0,"parameterNumber":2,"parameterNumberName":"U-component_of_WINDS"},"data":[0,0,0,0,0,0,0,0,0,0,0,0,0,0,0,0,0,0,0,0,0,0,0,0,0,0,0,0,0,0,0,0,0,0,0,0,0,0,0,0,0,0,0,0,0,0,0,0,0,0,0,0,0,0,0,0,0,0,0.4437,0.4437,0,0.4415,0.4414,0.4414,0.4352,0.4351,0.4349,0.4348,0.4329,0.433,0.4331,0,0,0,0,0,0,0,0,0,0,0,0,0,0.443,0.443,0.4437,0.4437,0.4436,0.4415,0.4414,0.4414,0.4352,0.435,0.4349,0.4347,0.4329,0.433,0.4331,0,0,0,0,0,0,0,0,0,0,0,0,0,0.4423,0.443,0.4437,0.4403,0.4399,0.4415,0.4414,0.4414,0.4352,0.435,0.4348,0.4347,0.4329,0.433,0.4331,0.4379,0,0,0.4334,0.4335,0,0,0,0,0,0,0,0,0.4423,0.4423,0.4408,0.4405,0.4401,0.4384,0.4405,0.4402,0.4353,0.437,0.4348,0.4346,0.4349,0.4349,0.4349,0.4378,0.4377,0.4334,0.4335,0.4336,0.4336,0,0,0,0,0,0,0,0.4424,0.4424,0.4428,0.4408,0.4404,0.439,0.4387,0.4404,0.4372,0.4369,0.4364,0.4362,0.4347,0.4348,0.4348,0.4377,0.4334,0.4335,0.4336,0.4337,0.4446,0.4449,0,0,0,0,0,0,0.4429,0.4425,0.4429,0.4427,0.4407,0.4392,0.4388,0.4392,0.4371,0.4366,0.4364,0.4359,0.4347,0.4347,0.4347,0.4404,0.4336,0.4337,0.4337,0.4444,0.4447,0.4449,0,0,0,0,0,0,0.4429,0.443,0.443,0.4425,0.4424,0.4394,0.4399,0.4392,0.4393,0.4368,0.4362,0.4371,0.4345,0.4346,0.4372,0.4403,0.4337,0.4338,0.4442,0.4445,0.4448,0.4518,0,0,0,0,0,0,0.4429,0.443,0.4447,0.4426,0.4424,0.4454,0.44,0.4393,0.4395,0.4389,0.4372,0.4368,0.4344,0.437,0.4373,0.4403,0.4339,0.4439,0.4443,0.4447,0.4513,0.4523,0.4532,0,0,0,0,0,0.4429,0.4468,0.4448,0.4449,0.4445,0.4455,0.4455,0.4425,0.4397,0.4415,0.4399,0.4368,0.4398,0.4373,0.4376,0.4407,0.4437,0.4442,0.4447,0.4509,0.4521,0.4532,0,0,0,0,0,0,0.4495,0.4465,0.4442,0.4475,0.4468,0.4445,0.4466,0.4439,0.4441,0.4436,0.44,0.4397,0.4429,0.442,0.4393,0.4454,0.4413,0.4418,0.4459,0.4471,0.448,0.4483,0.434,0,0,0,0,0,0.4513,0.4523,0.4496,0.4528,0.4526,0.4497,0.45,0.4478,0.447,0.4467,0.4453,0.4447,0.4456,0.4462,0.4468,0.451,0.4508,0.4533,0.4543,0.4551,0.4557,0.4582,0.4594,0.4466,0.4466,0.4466,0,0,0.4552,0.4536,0.4545,0.4541,0.4533,0.4546,0.4495,0.451,0.452,0.447,0.4494,0.4483,0.4475,0.451,0.4525,0.4504,0.4591,0.4557,0.4564,0.4566,0.4588,0.4601,0.4611,0.4469,0.4469,0.4468,0,0,0.4629,0.4617,0.4643,0.4636,0.4624,0.4605,0.4611,0.4591,0.4582,0.4605,0.4569,0.458,0.4595,0.4591,0.4591,0.4667,0.4641,0.467,0.4722,0.4747,0.4757,0.4766,0.4796,0.4807,0.4676,0.4676,0.4676,0,0.4679,0.4696,0.4661,0.4679,0.468,0.4633,0.4661,0.4655,0.4647,0.4649,0.4625,0.4643,0.4634,0.4669,0.4688,0.4688,0.4697,0.4673,0.4758,0.4766,0.4774,0.4803,0.4814,0.468,0.4679,0.4679,0.4679,0,0.4759,0.4772,0.4794,0.4787,0.4789,0.4812,0.4782,0.4789,0.4767,0.475,0.4776,0.4763,0.4767,0.4773,0.4751,0.4806,0.4793,0.4764,0.4723,0.4791,0.4818,0.4828,0.4686,0.4684,0.4683,0.4682,0,0,0.488,0.4852,0.4861,0.4858,0.4841,0.4851,0.4872,0.4875,0.4883,0.4878,0.4898,0.4911,0.4884,0.4884,0.4861,0.4882,0.4948,0.4851,0.485,0.4872,0.5011,0.5036,0.5049,0.4928,0.493,0.4932,0.5013,0,0.4956,0.499,0.4959,0.5001,0.5013,0.4968,0.4988,0.4981,0.4966,0.4975,0.4959,0.4971,0.4932,0.4932,0.4951,0.4936,0.4976,0.4929,0.4949,0.495,0.4957,0.5063,0.5089,0.5167,0.5023,0.5025,0.5026,0,0.5049,0.5049,0.5091,0.5073,0.5077,0.5095,0.5096,0.5104,0.5096,0.5084,0.5084,0.5056,0.5078,0.5035,0.5066,0.5036,0.5041,0.5035,0.5038,0.5042,0.4995,0.5073,0.519,0.5204,0.5041,0.504,0.5039,0,0.5138,0.5147,0.5174,0.5172,0.5151,0.5165,0.5157,0.5146,0.515,0.5151,0.5154,0.5157,0.5161,0.5165,0.5139,0.511,0.5176,0.513,0.5169,0.517,0.5188,0.5188,0.5312,0.5186,0.5186,0.5185,0.5185,0,0.5228,0.5257,0.5214,0.5231,0.5262,0.5226,0.5259,0.5246,0.5238,0.5253,0.5214,0.523,0.5193,0.5206,0.5186,0.5217,0.5218,0.5211,0.5206,0.5217,0.5218,0.5223,0.5218,0.5189,0.5188,0.5187,0.5187,0,0.5334,0.5305,0.5333,0.531,0.5305,0.5329,0.5311,0.5327,0.5308,0.5329,0.5332,0.5304,0.5317,0.5291,0.53,0.5287,0.5333,0.5317,0.5336,0.5332,0.5375,0.5373,0.5509,0.5527,0.5386,0.5387,0.5389,0,0.5395,0.5416,0.5395,0.5402,0.5396,0.5407,0.5411,0.5377,0.5383,0.5375,0.5393,0.5402,0.5408,0.5431,0.5414,0.5422,0.5409,0.5456,0.541,0.5421,0.5414,0.5415,0.5418,0.5467,0.5468,0.547,0.5471,0,0.5508,0.5493,0.5499,0.5501,0.5506,0.5506,0.5504,0.5512,0.5476,0.5485,0.5497,0.5501,0.5511,0.5522,0.5526,0.5519,0.5491,0.5485,0.5495,0.5508,0.552,0.5518,0.5366,0.5483,0.5482,0.5481,0.548,0.548,0.5596,0.5613,0.5602,0.5611,0.5604,0.5603,0.5618,0.5601,0.561,0.5615,0.5593,0.5611,0.5604,0.5606,0.5602,0.5617,0.5597,0.5611,0.5615,0.562,0.5629,0.5514,0.5617,0.5617,0.5617,0.5616,0.5616,0,0.571,0.57,0.5708,0.5706,0.5713,0.5682,0.5678,0.5687,0.5703,0.5697,0.5704,0.5719,0.573,0.5713,0.5721,0.5737,0.5724,0.574,0.5741,0.5741,0.5645,0.5637,0.5751,0.5751,0.5751,0.5751,0.5751,0.5751,0.5771,0.58,0.5783,0.581,0.5799,0.5816,0.5816,0.5816,0.5812,0.583,0.5838,0.5826,0.5817,0.5825,0.5834,0.5829,0.5836,0.5858,0.5849,0.576,0.5747,0.5735,0.5727,0.5858,0.5859,0.5944,0.5945,0.5945]},{"header":{"parameterUnit":"m.s-1","parameterCategory":1,"la1":30.2991,"la2":30.254,"lo1":-89.0895,"lo2":-89.0444,"dy":0.0017,"dx":0.0017,"nx":28,"ny":28,"refTime":"2025-01-18T09:00:00:Z","depth":0,"parameterNumber":3,"parameterNumberName":"V-component_of_WINDS"},"data":[0,0,0,0,0,0,0,0,0,0,0,0,0,0,0,0,0,0,0,0,0,0,0,0,0,0,0,0,0,0,0,0,0,0,0,0,0,0,0,0,0,0,0,0,0,0,0,0,0,0,0,0,0,0,0,0,0,0,2.1454,2.1454,0,2.1471,2.1471,2.1471,2.1446,2.1445,2.1444,2.1443,2.146,2.1462,2.1463,0,0,0,0,0,0,0,0,0,0,0,0,0,2.14,2.1401,2.1454,2.1454,2.1455,2.1471,2.1471,2.1471,2.1446,2.1445,2.1444,2.1443,2.146,2.1461,2.1463,0,0,0,0,0,0,0,0,0,0,0,0,0,2.1421,2.1402,2.1454,2.1444,2.1443,2.1471,2.1471,2.1471,2.1446,2.1445,2.1443,2.1442,2.1459,2.1461,2.1463,2.1502,0,0,2.1469,2.147,0,0,0,0,0,0,0,0,2.142,2.1423,2.1445,2.1445,2.1444,2.1455,2.1458,2.1482,2.1446,2.1445,2.1443,2.1441,2.146,2.1461,2.1467,2.1503,2.1503,2.1469,2.147,2.1471,2.1472,0,0,0,0,0,0,0,2.1418,2.1422,2.1461,2.1445,2.1445,2.1438,2.144,2.1463,2.146,2.1445,2.1443,2.1445,2.1459,2.1466,2.1468,2.1504,2.1469,2.1471,2.1472,2.1473,2.1572,2.1573,0,0,0,0,0,0,2.1418,2.1421,2.146,2.1461,2.1428,2.144,2.1442,2.1453,2.1459,2.1459,2.1447,2.1444,2.1463,2.1465,2.1468,2.1514,2.1471,2.1473,2.1474,2.157,2.1572,2.1574,0,0,0,0,0,0,2.1417,2.1422,2.146,2.1441,2.1445,2.1443,2.1455,2.1454,2.146,2.146,2.146,2.1454,2.1462,2.1465,2.1494,2.1515,2.1474,2.1476,2.1569,2.1571,2.1573,2.1607,0,0,0,0,0,0,2.1416,2.1422,2.1436,2.1441,2.1446,2.1485,2.1456,2.1455,2.1464,2.1461,2.1467,2.1467,2.1461,2.1491,2.1496,2.1517,2.1477,2.1567,2.157,2.1572,2.1604,2.161,2.1615,0,0,0,0,0,2.1414,2.1445,2.1437,2.1442,2.1464,2.1486,2.1489,2.1482,2.1466,2.148,2.148,2.1467,2.1511,2.1494,2.1499,2.1521,2.1565,2.1569,2.1572,2.1601,2.1609,2.1615,0,0,0,0,0,0,2.1443,2.1446,2.1437,2.1471,2.1479,2.1482,2.15,2.149,2.1502,2.1499,2.1489,2.1491,2.1521,2.1524,2.1504,2.1559,2.1536,2.154,2.1556,2.1563,2.1569,2.1568,2.1479,0,0,0,0,0,2.1453,2.1471,2.1472,2.1502,2.1506,2.1503,2.1512,2.1506,2.1513,2.1516,2.1518,2.1526,2.1542,2.1553,2.1567,2.1604,2.1605,2.1621,2.1627,2.1631,2.1636,2.1656,2.1663,2.1584,2.1584,2.1584,0,0,2.1475,2.1479,2.149,2.1508,2.1513,2.1532,2.1506,2.1526,2.154,2.1519,2.1546,2.1548,2.1556,2.1589,2.1604,2.1592,2.1658,2.1636,2.1639,2.1641,2.166,2.1667,2.1674,2.1587,2.1586,2.1586,0,0,2.1524,2.1528,2.1554,2.156,2.1568,2.1565,2.1571,2.1576,2.1577,2.1604,2.1589,2.1605,2.1632,2.1639,2.1646,2.1697,2.1685,2.1702,2.1732,2.1751,2.1758,2.1763,2.1782,2.1789,2.1706,2.1706,2.1706,0,2.155,2.1577,2.1568,2.159,2.1599,2.1581,2.1607,2.1613,2.1625,2.1631,2.1618,2.1652,2.1656,2.1691,2.1703,2.1709,2.1716,2.1702,2.1757,2.1763,2.1768,2.1786,2.1793,2.1708,2.1708,2.1708,2.1707,0,2.1609,2.1628,2.1648,2.1661,2.1671,2.1695,2.1689,2.1701,2.1694,2.1693,2.172,2.1725,2.174,2.1747,2.174,2.1781,2.1773,2.1759,2.1736,2.1777,2.1794,2.1801,2.1711,2.171,2.171,2.1709,0,0,2.1678,2.1685,2.1693,2.1698,2.1706,2.1721,2.1743,2.1758,2.1769,2.1778,2.1797,2.182,2.1807,2.1815,2.1808,2.1825,2.1867,2.1809,2.1809,2.182,2.1912,2.1924,2.1932,2.1858,2.186,2.1861,2.1912,0,2.1728,2.1767,2.176,2.1798,2.1816,2.1799,2.1819,2.1826,2.1825,2.184,2.1839,2.1857,2.1837,2.1842,2.1858,2.1858,2.1885,2.1854,2.1877,2.1878,2.1876,2.194,2.1953,2.2001,2.1918,2.1919,2.192,0,2.1791,2.1802,2.1843,2.1848,2.1855,2.1873,2.1886,2.1901,2.1908,2.1906,2.1915,2.1905,2.1928,2.1904,2.1935,2.1915,2.1923,2.1925,2.1926,2.1929,2.1902,2.1945,2.2016,2.2023,2.193,2.1929,2.1929,0,2.1838,2.1863,2.1891,2.1896,2.1903,2.1916,2.1919,2.1925,2.1935,2.1946,2.1952,2.1966,2.1974,2.1985,2.1979,2.1962,2.2012,2.1987,2.2011,2.2012,2.2023,2.2023,2.2097,2.2028,2.2027,2.2027,2.2027,0,2.1894,2.192,2.1912,2.193,2.1958,2.1949,2.1977,2.1978,2.1984,2.2001,2.1987,2.2003,2.1994,2.201,2.2005,2.2032,2.2036,2.2035,2.2034,2.2037,2.2037,2.2043,2.204,2.2029,2.2029,2.2028,2.2028,0,2.1952,2.1948,2.1977,2.1981,2.1982,2.2003,2.2006,2.2022,2.202,2.2042,2.2046,2.2044,2.2061,2.2056,2.2076,2.2073,2.2107,2.2101,2.2105,2.2104,2.2129,2.2127,2.221,2.2221,2.2144,2.2144,2.2145,0,2.1989,2.2008,2.2014,2.2024,2.2029,2.2046,2.2055,2.2047,2.2058,2.2067,2.2083,2.2099,2.2112,2.2141,2.2141,2.2155,2.215,2.2178,2.2152,2.2155,2.2152,2.2151,2.2153,2.2184,2.2185,2.2185,2.2186,0,2.2055,2.2052,2.2067,2.208,2.2092,2.2103,2.2112,2.2121,2.2113,2.2126,2.2144,2.2154,2.2174,2.2191,2.2204,2.2207,2.2196,2.2194,2.2201,2.2205,2.2206,2.2207,2.212,2.2192,2.2192,2.2191,2.2191,2.2191,2.2104,2.2121,2.2127,2.2144,2.215,2.2159,2.2174,2.2174,2.2189,2.2205,2.2198,2.2219,2.2226,2.2243,2.2248,2.2264,2.2254,2.2263,2.2266,2.2268,2.2272,2.2203,2.2267,2.2266,2.2266,2.2266,2.2266,0,2.217,2.2174,2.2189,2.2202,2.2215,2.2203,2.2212,2.2224,2.2243,2.225,2.2263,2.2284,2.23,2.2301,2.2316,2.2329,2.2324,2.2333,2.2333,2.2334,2.228,2.2273,2.2337,2.2337,2.2337,2.2337,2.2337,2.2337,2.2206,2.2234,2.2232,2.2262,2.2265,2.2286,2.2292,2.23,2.2306,2.233,2.2344,2.2344,2.2349,2.2364,2.2379,2.2378,2.2385,2.2396,2.2394,2.2345,2.2337,2.2331,2.2324,2.2398,2.2398,2.2447,2.2447,2.2448]}]]